Weather Roundup
Issued by NWS Chicago, IL

Home | Current Version | Previous Version | Graphics & Text | Print | Product List | Glossary On
Versions: 1 2 3 4 5 6 7 8 9 10 11 12 13 14 15 16 17 18 19 20 21 22 23 24 25 26 27 28 29 30 31 32 33 34 35 36 37 38 39 40 41 42 43 44 45 46 47 48 49 50
709
NZUS59 KLOT 221312
HRRLOT

CHICAGO AREA WEATHER ROUNDUP
NATIONAL WEATHER SERVICE CHICAGO/ROMEOVILLE IL
800 AM CDT FRI MAY 22 2015

NOTE: "FAIR" INDICATES FEW OR NO CLOUDS BELOW 12,000 FEET WITH NO
SIGNIFICANT WEATHER AND/OR OBSTRUCTIONS TO VISIBILITY.

* THESE STATIONS ARE NOT UNDER NWS QUALITY CONTROL. THEY ALSO MAY NOT
  REPORT WEATHER SUCH AS PRECIPITATION OR FOG.

ILZ005-006-012>014-019>023-221400-
NORTHEAST ILLINOIS

CITY           SKY/WX    TMP DP  RH WIND       PRES   REMARKS
OHARE          SUNNY     54  38  54 NE9       30.17R
MIDWAY         SUNNY     57  43  59 NE8       30.16R
AURORA         SUNNY     55  42  61 NE6       30.17R
LANSING*       SUNNY     55  45  68 N3        30.16R
JOLIET*        SUNNY     56  47  70 CALM      30.17R
WAUKEGAN       SUNNY     52  35  52 NE8       30.19R
DUPAGE AIRPORT SUNNY     55  41  59 NE7       30.17R
WHEELING       SUNNY     52  36  54 NE8       30.19R
KANKAKEE*      SUNNY     58  48  70 NW3       30.16R
MORRIS*        SUNNY     55  46  69 CALM      30.14S
LEWIS AIRPORT* SUNNY     55  43  63 CALM      30.17R
NORTHERLY IS     N/A     51  43  74 N10         N/A
$$

WIZ051-052-058>065-066-070>072-221400-
SOUTHEAST WISCONSIN

CITY           SKY/WX    TMP DP  RH WIND       PRES   REMARKS
MILWAUKEE      SUNNY     50  35  56 NE8       30.20R
KENOSHA*       SUNNY     53  39  59 E6        30.19R
RACINE*        SUNNY     51  36  56 N8        30.21R
BURLINGTON     SUNNY     51  31  46 E5        30.19R
WAUKESHA       SUNNY     50  32  50 E5        30.20R
WEST BEND      SUNNY     50  32  50 E3        30.21R
$$

INZ001>003-010>013-019-020-221400-
NORTHWEST INDIANA

CITY           SKY/WX    TMP DP  RH WIND       PRES   REMARKS
GARY*          SUNNY     54  46  76 MISG      30.16R
MICHIGAN CITY* NOT AVBL
RENSSELAER*    NOT AVBL
VALPARAISO     SUNNY     58  46  64 E6        30.16R
$$

LMZ740>746-221400-
SOUTHERN LAKE MICHIGAN

STATION/POSITION TIME  SKY/WX   TEMP WIND        PRES    VSBY
                                AIR  DIR/SP/G
                 (UTC)          (F)  (DEG/KT/KT) (MB)    (MI)
HARRISON CRIB    1200            48   20/  6/  7   N/A
BURNHAM HARBOR   1300            51  350/  8/  9   N/A
CALUMET HARBOR   1200            50  360/  4/  8   N/A
BURNS HARBOR     1200            51   50/  7/  8 1021.0R
MICHIGAN CITY    1200            51   40/  8/  8   N/A
$$

ABBREVIATIONS USED IN REMARKS
   TC - TEMPERATURE IN CELSIUS
  WCI - WIND CHILL INDEX
   HX - HEAT INDEX
  VSB - VISIBILITY
$$



USA.gov is the U.S. government's official web portal to all federal, state and local government web resources and services.